Tracking 30701 objects as of 15-Jun-2025
HD Live streaming from Space Station
objects crossing your sky now

COSMOS 1275 DEB

Track COSMOS 1275 DEB now!
10-day predictions


NORAD ID: 19853
Int'l Code: 1981-053MN
Perigee: 925.2 km
Apogee: 1,102.9 km
Inclination: 83.0 °
Period: 105.3 minutes
Semi major axis: 7385 km
RCS: 0.0046 m2 (small)
Launch date: June 4, 1981
Source: Commonwealth of Independent States (former USSR) (CIS)
Launch site: PLESETSK MISSILE AND SPACE COMPLEX (PKMTR)

Note: This is SATELLITE DEBRIS
Your satellite tracking list
Your tracking list is empty




NASA's NSSDC Master Catalog

Two Line Element Set (TLE):
1 19853U 81053MH  25165.46877588  .00000766  00000-0  84082-3 0  9999
2 19853  82.9899 171.5970 0120289 166.2800 345.4620 13.67955274644184
Source of the keplerian elements: AFSPC